Location: Augsburg
(48.3836°N, 10.8929°E)
Time: 18:32:32
(UTC+01:00)

ISS - Pass Details

Date: 06 January 2018
Orbit: 402 x 407 km, 51.6° (Epoch: 19 January)

Event Time Altitude Azimuth Distance (km) Brightness Sun altitude
Exits shadow 05:13:43 17° 63° (ENE) 1,130 -1.0 -27.8°
Drops below altitude 10° 05:14:35 10° 67° (ENE) 1,470 -0.2 -27.7°
Sets 05:16:42 0° 71° (ENE) 2,333 1.1 -27.3°
